Regional Weather Roundup
Issued by NWS

Home | Current Version | Previous Version | Text Only | Print | Product List | Glossary Off
Versions: 1 2 3 4 5 6 7 8 9 10 11 12 13 14 15 16 17 18 19 20 21 22 23 24 25 26 27 28 29 30 31 32 33 34 35 36 37 38 39 40 41 42 43 44 45 46 47 48 49 50

000
ASUS43 KMPX 241201
RWRMN
WEATHER ROUNDUP FOR MINNESOTA
NATIONAL WEATHER SERVICE TWIN CITIES/CHANHASSEN MN
700 AM CDT TUE APR 24 2018


NOTE: "FAIR" INDICATES FEW OR NO CLOUDS BELOW 12,000 FEET WITH NO
SIGNIFICANT WEATHER AND/OR OBSTRUCTIONS TO VISIBILITY. N/A MEANS
CURRENT SKY AND/OR WEATHER CONDITIONS ARE NOT AVAILABLE.

MNZ060>063-068>070-241300-
   Twin Cities Metro

CITY           SKY/WX    TMP DP  RH WIND       PRES   REMARKS
TWIN CITIES    FAIR      45  40  82 SE5       30.12F
6HR MIN TEMP:  43; 6HR MAX TEMP:  53;

ST PAUL        FAIR      42  38  85 CALM      30.13F
CRYSTAL        FAIR      38  35  89 CALM      30.11F
BLAINE         PTCLDY    39  36  87 CALM      30.11F
LAKEVILLE      FAIR      39  37  93 W3        30.12S
EDEN PRAIRIE   FAIR      43  38  82 CALM      30.11S
6HR MIN TEMP:  43; 6HR MAX TEMP:  52;

SOUTH ST PAUL  FAIR      42  36  80 CALM      30.12F
LAKE ELMO      FAIR      36  32  87 CALM      30.13F
$$
MNZ001>005-007-008-013>017-022>024-027-028-241300-
   Northwest Minnesota

CITY           SKY/WX    TMP DP  RH WIND       PRES   REMARKS
BEMIDJI        LGT RAIN  40  33  77 N9        30.28R
HALLOCK        FAIR      32  28  86 N6        30.36S WCI  26
ROSEAU         FAIR      36  28  75 N7        30.33R
WARROAD        FAIR      34  28  80 NW7       30.33R WCI  28
THIEF RVR FALL MOCLDY    41  32  70 N10       30.34R
CROOKSTON      FAIR      39  36  87 N13       30.35R
FOSSTON        LGT RAIN  37  34  87 N5        30.31R
DETROIT LAKES  DRIZZLE   41  36  81 N9        30.29R
MOORHEAD       LGT RAIN  43  37  81 N15       30.33R
PARK RAPIDS    CLOUDY    46  30  53 N15G26    30.24R
MAHNOMEN       DRIZZLE   40  36  86 N9        30.30R
$$
MNZ006-009>011-018-025>026-241300-
   North Central Minnesota

CITY           SKY/WX    TMP DP  RH WIND       PRES   REMARKS
BAUDETTE       FAIR      37  30  75 NW8       30.30R
FLAG ISLAND    FAIR      32  27  80 NW12      30.30R WCI  23
INTL FALLS     CLOUDY    39  30  70 N9        30.26R
6HR MIN TEMP:  30; 6HR MAX TEMP:  40;

WASKISH        CLOUDY    39  30  70 N7        30.29R
BIG FORK       FAIR      39  28  65 N6        30.25R
LONGVILLE      CLOUDY    41  28  60 NW3       30.22R
GRAND RAPIDS   CLOUDY    38  30  73 NW8       30.23R
CRANE LAKE     MOCLDY    28  28 100 CALM      30.26R
ORR            FAIR      34  27  75 CALM      30.21R
COOK           FAIR      30  27  86 CALM      30.22R
WALKER         CLOUDY    43  30  59 N9G17     30.25R
$$
MNZ012-019>021-037-241300-
   Northeast Minnesota

CITY           SKY/WX    TMP DP  RH WIND       PRES   REMARKS
DULUTH         FAIR      40  29  64 NE5       30.17R
6HR MIN TEMP:  34; 6HR MAX TEMP:  50;

ELY            FAIR      28  27  93 CALM      30.21R
HIBBING        FAIR      34  29  82 NW6       30.19R WCI  29
EVELETH        FAIR      41  29  62 N5        30.20R
DULUTH HARBOR  FAIR      39  32  75 NE5       30.19R
TWO HARBORS    FAIR      41  30  65 CALM      30.17R
SILVER BAY     FAIR      34  30  86 CALM      30.18R
GRAND MARAIS     N/A     39  28  64 N3        30.20R
G MARAIS ARPRT FAIR      36  25  64 N8        30.17R
$$
MNZ029>031-032-039>041-046>048-054>057-064-241300-
   West Central Minnesota

CITY           SKY/WX    TMP DP  RH WIND       PRES   REMARKS
FERGUS FALLS   CLOUDY    45  36  70 N14G23    30.24R
WHEATON        CLOUDY    45  37  76 N18G25    30.27R
MORRIS         CLOUDY    45  39  81 N13       30.20R
ALEXANDRIA     CLOUDY    47  32  56 N10       30.20R
ELBOW LAKE     CLOUDY    44  35  72 NW10      30.24R
WADENA         CLOUDY    45  32  61 N13       30.23R
GLENWOOD       FAIR      43  34  70 N9        30.18R
APPLETON       CLOUDY    46  37  71 N15       30.18R
BENSON         CLOUDY    43  36  75 N9        30.20R
ORTONVILLE     CLOUDY    46  39  76 N18G24    30.22R
MADISON        CLOUDY    48  43  81 N15       30.18S
WILLMAR        FAIR      45  36  70 N5        30.17R
$$
MNZ033>034-036-042>043-049>051-058-059-241300-
   Central Minnesota

CITY           SKY/WX    TMP DP  RH WIND       PRES   REMARKS
ST CLOUD       FAIR      42  34  73 N3        30.13F
6HR MIN TEMP:  38; 6HR MAX TEMP:  45;

SAUK CENTRE    PTSUNNY   42  32  69 N8        30.17R
PAYNESVILLE    FAIR      44  36  74 N7        30.16R
AITKIN         FAIR      28  27  93 CALM      30.17R
PINE RIVER     CLOUDY    41  28  60 N8        30.24R
BRAINERD       MOCLDY    41  30  65 N7        30.19R
STAPLES        MOCLDY    43  30  61 N10       30.21R
LONG PRAIRIE   MOCLDY    41  32  70 NW7       30.18R
LITTLE FALLS   MOCLDY    43  25  49 NW5       30.18R
LITCHFIELD     FAIR      45  36  70 N5        30.14R
BUFFALO        FAIR      43  34  70 N3        30.13S
MAPLE LAKE     FAIR      43  36  75 N5        30.14S
HUTCHINSON     FAIR      41  37  85 NW3       30.14R
$$
MNZ037-044-045-052-053-241300-
   East Central Minnesota

CITY           SKY/WX    TMP DP  RH WIND       PRES   REMARKS
PRINCETON      FAIR      45  34  65 N6        30.14R
MORA           FAIR      43  32  65 CALM      30.17R
CAMBRIDGE      FAIR      45  34  65 N5        30.14R
RUSH CITY      FAIR      40  33  77 N5        30.14R
MOOSE LAKE     FAIR      39  28  65 NE5       30.15R
HINCKLEY       FAIR      45  32  61 N7        30.15R
CLOQUET        FAIR      36  27  69 CALM      30.17R
MCGREGOR       MOCLDY    34  30  86 N6        30.18R WCI  29
$$
MNZ071>073-080-081-089-090-097-098-241300-
   Southwest Minnesota

CITY           SKY/WX    TMP DP  RH WIND       PRES   REMARKS
MONTEVIDEO     CLOUDY    45  36  70 N10       30.17R
GRANITE FALLS  PTCLDY    42  38  86 NW8       30.17R
CANBY          CLOUDY    47  41  78 W9        30.19R
MARSHALL       CLOUDY    43  40  89 NW9       30.17R
REDWOOD FALLS  CLOUDY    42  40  92 NW5       30.14R
OLIVIA         MOCLDY    41  36  81 N6        30.13S
PIPESTONE      CLOUDY   N/A N/A N/A NE3       30.15R
WINDOM         CLEAR     37  25  60 CALM      30.14S
WORTHINGTON    CLOUDY    39  34  82 W3        30.15R
JACKSON        CLEAR     37  32  81 NW6       30.14R
TRACY          MOCLDY    43  38  82 W6        30.15R
SLAYTON        CLOUDY    37  34  87 W5        30.15S
$$
MNZ065>067-074>077-082>085-091>093-241300-
   South Central Minnesota

CITY           SKY/WX    TMP DP  RH WIND       PRES   REMARKS
MANKATO        FAIR      45  40  82 CALM      30.13S
NEW ULM        CLEAR     43  37  81 CALM      30.12F
ST JAMES       CLEAR     43  37  81 CALM      30.14F
FAIRMONT       CLEAR     40  34  79 CALM      30.13S
GLENCOE        FAIR      40  40 100 CALM      30.12S FOG
OWATONNA       FAIR      39  37  93 CALM      30.13S
WASECA         FOG       37  36  93 CALM      30.14S VSB 1/4
ALBERT LEA     FAIR      43  37  81 CALM      30.13S
$$
MNZ078>079-086>088-094>096-241300-
   Southeast Minnesota

CITY           SKY/WX    TMP DP  RH WIND       PRES   REMARKS
ROCHESTER      FAIR      43  37  79 W8        30.13R
6HR MIN TEMP:  41; 6HR MAX TEMP:  50;

RED WING       FAIR      37  30  75 CALM      30.12S
STANTON        FAIR      37  34  91 CALM      30.12S
DODGE CENTER   FAIR      41  36  81 CALM      30.13R
WINONA         FAIR      36  32  87 CALM      30.12R
AUSTIN         FAIR      43  37  81 CALM      30.13R
PRESTON        FAIR      45  34  65 NW3       30.13R
$$
ABBREVIATIONS USED IN REMARKS
   TC - TEMPERATURES IN CELSIUS
  WCI - WIND CHILL INDEX
   HX - HEAT INDEX
  VSB - VISIBILITY
$$



USA.gov is the U.S. government's official web portal to all federal, state and local government web resources and services.